Find Starlink 3071

NORAD ID: 49147 Int'l Des: 2021-082 Owner: SPXS Country: US Constellation: starlink operational
LEOCIRCULAR

現在のビュー

3D地球を読み込み中...

About Starlink 3071

Starlink 3071 (NORAD 49147) is a starlink constellation satellite (v1.5) launched Sep 14, 2021 by SPXS of US. It operates in LEO, CIRCULAR orbit with a mass of 297.00 kg.

Starlink 3071について

説明を読み込み中...

次回通過

Passes for default location (London). Set your location on the main map for personalized predictions.

高度履歴

Loading altitude history...

軌道要素

1 49147U 21082T 26166.93410403 -.00000228 00000-0 -11353-4 0 9994
2 49147 69.9997 6.7507 0002921 268.1499 91.9325 14.98327953261687
Epoch: Jun 15, 2026 • Age: 10 hours

現在のステータス

高度 577.5 km
速度 7.57 km/s
衛星直下点 -17.02°S, 153.68°E
打ち上げ日 Sep 14, 2021
運用期間 4.7 years
タイプ internet

技術仕様

分類 Payload
質量 297.00 kg
乾燥質量 275.00 kg
総質量 297.00 kg
長さ 0.20 m
直径 2.80 m
スパン 9.00 m
形状 Box + pan
製造者 SPXS
バスタイプ Starlink
フェーズステータス In Orbit
所有者/国 SPXS/US

Most Searched